Regional Weather Roundup
Issued by NWS

Home | Current Version | Previous Version | Graphics & Text | Print | Product List | Glossary On
Versions: 1 2 3 4 5 6 7 8 9 10 11 12 13 14 15 16 17 18 19 20 21 22 23 24 25 26 27 28 29 30 31 32 33 34 35 36 37 38 39 40 41 42 43 44 45 46 47 48 49 50
000
ASUS43 KIND 201500
RWRIN

WEATHER ROUNDUP FOR INDIANA
NATIONAL WEATHER SERVICE INDIANAPOLIS IN
1100 AM EDT FRI OCT 20 2017

NOTE: "FAIR" INDICATES FEW OR NO CLOUDS BELOW 12,000 FEET WITH NO
SIGNIFICANT WEATHER AND/OR OBSTRUCTIONS TO VISIBILITY.

* - STATION DOES NOT REPORT WEATHER SUCH AS PRECIPITATION OR FOG.

+ - STATION NOT QUALITY CONTROLLED BY THE NATIONAL WEATHER SERVICE.
    USE DATA WITH CAUTION...ESPECIALLY DEWPOINT AND RELATIVE
    HUMIDITY OBSERVATIONS.

INZ001>003-010>013-019-020-201600-
NORTHWEST INDIANA

CITY           SKY/WX    TMP DP  RH WIND       PRES   REMARKS
GARY /AIRPORT/ MOSUNNY   66  50  55 SW10      30.20F
KNOX *+        SUNNY     64  52  63 S9        30.23S
MICHIGAN CITY+ SUNNY     64  52  63 S6        30.22S
MONTICELLO +   SUNNY     64  53  68 S8        30.24F
RENSSELAER +   SUNNY     64  50  59 S7        30.23S

$$

LMZ046-743>745-201600-
SOUTHERN LAKE MICHIGAN

STATION/POSITION TIME  TEMP    WIND        PRES    WAVE
                       AIR SEA DIR/SP/G            HT
                 (UTC) (F)     (DEG/KT/KT) (MB)    (FT)
BURNS HARBOR     1406   60     180/ 12/ 16 1023.0
MICHIGAN CITY    1410   61     160/ 11/ 16   N/A
5NW MICH CITY    1430   60 58  190/  8/ 12   N/A     1

$$

INZ004-005-014>016-021>024-201600-
NORTH CENTRAL INDIANA

CITY           SKY/WX    TMP DP  RH WIND       PRES   REMARKS
ELKHART        SUNNY     63  52  67 S5        30.24S
GOSHEN         SUNNY     65  52  62 S7        30.25S
PERU/GRISSOM   SUNNY     65  55  69 S8        30.26S
SOUTH BEND     SUNNY     64  53  67 S9        30.23F

$$

INZ006>009-017-018-025>027-201600-
NORTHEAST INDIANA

CITY           SKY/WX    TMP DP  RH WIND       PRES   REMARKS
FORT WAYNE     MOSUNNY   64  52  64 SW6       30.28S
KENDALLVILLE + SUNNY     62  51  66 S5        30.28S

$$

INZ028-029-035-036-043>045-051>053-201600-
WEST CENTRAL INDIANA

CITY           SKY/WX    TMP DP  RH WIND       PRES   REMARKS
LAFAYETTE      SUNNY     66  55  67 SW5       30.25S
TERRE HAUTE    SUNNY     64  53  67 S5        30.27F

$$

INZ030>032-037>040-046>048-054>057-064-065-201600-
CENTRAL INDIANA

CITY           SKY/WX    TMP DP  RH WIND       PRES   REMARKS
COLUMBUS       SUNNY     61  52  72 CALM      30.31R
GREENWOOD *+   SUNNY     65  57  74 S3        30.30S
INDIANAPOLIS   MOSUNNY   63  54  72 S3        30.29S
-EAGLE CREEK   SUNNY     63  53  70 S6        30.28S
KOKOMO +       SUNNY     65  54  67 S6        30.28S
MT COMFORT *+  SUNNY     64  57  77 S5        30.29S
SHELBYVILLE    SUNNY     65  52  62 S6        30.29S

$$

INZ033-034-041-042-049-050-058-059-201600-
EAST CENTRAL INDIANA

CITY           SKY/WX    TMP DP  RH WIND       PRES   REMARKS
MUNCIE         SUNNY     68  52  56 SW5       30.29S
RICHMOND +     SUNNY     64  52  63 CALM      30.32S

$$

INZ060-061-067>069-081>083-085>088-201600-
SOUTHWEST INDIANA

CITY           SKY/WX    TMP DP  RH WIND       PRES   REMARKS
EVANSVILLE     SUNNY     63  53  70 SW3       30.29
HUNTINGBURG +  SUNNY     63  54  72 SE5       30.29F

$$

INZ062-063-066-070>080-084-089>092-201600-
SOUTH CENTRAL AND SOUTHEAST INDIANA

CITY           SKY/WX    TMP DP  RH WIND       PRES   REMARKS
BLOOMINGTON    SUNNY     65  51  60 S6        30.29S
MADISON *+     SUNNY     61  54  77 CALM      30.33F
SEYMOUR +      SUNNY     64  54  68 S3        30.31S

$$





USA.gov is the U.S. government's official web portal to all federal, state and local government web resources and services.